Wetbulb
48.11 47.61 48.31 48.07 48.79 48.69 48.16 41.85 33.77 46.19 48.09 34.88 34.66 30.88 33.01 37.55 35.76 38.09 36.55 39.63 38.09 33.48 32.22 30.50 30.55 32.22 36.71 40.87 40.39 35.31 37.88 31.49 26.06 33.57 40.69 42.18 39.69 35.00 34.77 27.85 27.69 28.87 22.56 22.32
47.34 47.39 47.55 47.55 47.99 48.94 45.90 37.80 37.74 47.28 45.84 30.05 30.44 33.87 33.66 35.64 34.84 35.25 35.31 33.70 38.76 37.68 29.51 25.48 28.11 34.58 41.33 41.74 39.31 36.41 38.39 31.52 24.96 29.21 34.40 38.92 36.64 36.89 38.06 36.12 34.70 28.46 19.57 21.34
46.94 46.74 46.98 47.16 47.80 50.48 46.67 37.41 32.04 38.35 41.65 38.90 32.87 30.85 31.40 32.12 37.43 36.04 36.51 36.28 36.87 33.57 28.67 31.06 26.72 33.11 39.47 41.43 41.24 43.76 41.75 35.94 30.75 23.16 29.02 34.06 31.53 34.12 33.63 32.73 25.54 20.78 22.77 24.15
46.97 46.43 46.69 47.10 47.33 47.18 43.15 37.72 34.14 35.95 32.04 34.18 35.14 33.90 32.69 31.47 31.97 36.38 38.29 35.19 35.38 31.61 25.00 29.10 28.74 34.44 37.13 40.29 43.02 40.46 38.93 31.46 32.88 33.95 35.62 34.79 32.48 31.51 31.34 29.82 28.92 24.19 20.46 24.10
46.63 46.29 46.15 47.16 46.99 46.44 39.94 32.78 33.58 37.08 35.45 36.83 36.16 35.61 32.47 31.73 33.91 34.19 32.67 32.82 35.90 34.48 30.51 30.89 28.96 33.98 35.44 35.32 38.49 36.79 39.13 31.30 30.63 30.54 33.11 32.90 27.43 26.64 28.53 30.18 30.89 29.64 27.27 24.80
46.59 46.19 45.95 46.40 46.79 45.84 39.42 40.42 41.28 37.80 34.27 34.38 32.63 33.62 34.26 33.04 36.44 37.97 37.62 35.82 35.66 33.54 34.50 37.12 38.79 39.96 40.05 39.66 37.14 34.53 35.22 32.62 28.85 26.65 29.78 30.53 26.30 25.32 25.22 28.65 31.65 31.01 24.94 27.66
46.48 46.03 46.28 46.17 46.10 45.75 43.23 42.55 40.50 34.73 30.22 32.57 32.86 35.90 36.38 35.58 36.59 34.12 37.12 38.52 36.45 38.00 41.31 41.55 40.14 38.75 39.27 39.57 38.85 39.34 35.15 33.55 31.98 27.25 29.56 21.76 24.95 33.21 31.70 31.13 30.94 29.75 28.07 27.43
46.01 46.42 46.12 46.00 45.75 45.75 44.14 44.40 42.50 38.27 30.43 33.74 33.64 35.93 35.54 37.03 38.65 35.11 37.45 38.62 40.68 41.27 39.93 34.60 32.51 32.35 34.02 35.73 38.86 38.27 38.99 34.90 28.93 26.27 26.43 27.05 28.40 31.97 30.40 28.98 27.66 30.48 28.01 27.94
46.23 46.21 46.32 45.56 45.26 45.65 44.97 43.70 45.33 41.79 34.04 30.56 36.49 35.48 36.22 33.70 34.10 34.42 36.91 40.45 41.59 40.75 35.98 31.72 27.67 26.19 30.20 29.30 33.40 39.60 39.15 38.26 32.07 27.80 24.62 19.61 28.13 33.63 36.45 35.07 24.56 30.82 29.96 26.99
46.40 46.12 45.85 45.63 44.97 45.32 45.01 43.25 46.18 42.07 35.39 38.19 39.24 35.56 35.16 37.28 33.82 33.08 34.69 36.20 36.70 38.55 31.46 29.96 28.02 27.53 34.38 27.67 28.38 30.94 32.48 31.14 27.30 25.80 26.35 28.10 33.68 35.39 37.25 24.03 24.98 31.87 29.87 28.07
46.26 45.79 45.49 45.09 44.93 45.96 44.70 42.31 45.88 43.21 38.76 40.00 42.81 41.80 37.20 37.14 36.12 31.92 34.75 33.67 34.36 32.07 29.76 30.03 29.09 27.27 30.41 30.31 33.66 31.66 29.46 27.96 25.49 25.84 24.43 21.78 35.20 34.23 28.98 30.88 32.36 32.63 30.90 29.69
45.17 44.69 44.69 44.66 45.96 45.98 45.35 40.19 47.49 47.89 41.52 40.35 44.54 44.05 43.86 43.21 41.58 37.91 37.18 34.92 34.56 34.95 31.51 31.07 30.57 28.63 30.60 29.97 23.67 36.72 28.58 30.73 27.71 27.97 26.33 31.63 33.29 32.39 34.07 33.63 31.65 31.52 31.47 32.16
44.86 45.00 45.24 45.38 45.63 45.40 44.59 42.36 45.69 44.25 39.42 38.36 39.86 39.24 43.26 46.14 45.19 44.55 35.57 37.08 38.42 36.72 38.11 35.64 33.11 29.88 31.48 28.65 27.32 31.14 34.55 35.84 27.39 27.84 27.85 30.13 32.45 34.21 33.77 32.81 31.36 31.37 32.21 30.39
45.00 44.98 44.73 45.20 45.84 45.86 45.80 42.40 46.25 42.91 38.22 33.40 35.45 44.47 41.73 45.93 45.26 43.95 42.82 40.98 42.01 41.21 39.67 35.00 32.92 29.88 35.45 30.34 33.33 31.10 32.50 32.96 28.61 26.47 28.90 31.64 33.13 33.46 32.21 31.66 31.70 30.98 31.08 30.79
44.83 44.65 44.73 45.66 45.22 46.74 46.51 46.23 45.82 44.30 38.78 33.04 34.23 40.53 42.80 43.60 43.57 43.04 42.24 40.79 38.86 35.69 33.13 32.37 30.27 33.35 33.24 33.05 33.39 30.20 34.30 30.29 25.49 23.95 30.10 29.52 29.38 32.61 33.16 30.92 30.20 30.62 30.00 29.16
43.61 44.17 45.57 44.85 44.99 46.55 44.13 34.58 42.86 43.53 41.74 35.64 29.28 37.67 38.24 40.01 41.17 40.05 39.28 38.67 37.17 35.60 33.36 32.39 35.38 37.67 34.02 27.56 27.14 35.07 36.00 37.21 36.67 33.25 33.86 32.69 33.05 32.92 34.42 30.75 31.23 31.98 31.12 31.00
43.17 44.99 45.01 45.12 45.27 42.01 38.21 35.33 40.29 43.66 41.58 35.08 28.97 30.46 37.11 39.60 38.28 36.78 36.38 36.86 35.93 34.83 32.71 32.30 32.35 32.34 34.25 26.85 27.18 34.32 36.27 36.57 35.39 35.49 34.52 31.34 31.61 29.87 33.90 32.51 32.24 33.49 31.20 30.30
45.04 44.69 45.54 45.46 45.63 43.69 38.00 39.87 43.85 44.45 39.57 36.96 27.82 29.01 31.90 38.53 31.90 31.08 35.56 33.08 33.97 33.88 31.67 32.44 31.73 31.71 30.55 27.02 33.54 35.18 35.83 35.35 34.81 35.08 35.21 33.77 34.18 34.20 33.42 31.69 29.95 27.86 25.59 24.50
44.46 44.68 44.78 42.72 40.98 36.32 37.54 44.30 44.84 43.37 38.45 30.14 28.20 26.02 23.51 36.63 32.76 33.10 33.47 34.46 27.16 32.81 29.72 30.08 31.19 27.64 24.70 31.32 33.73 34.49 35.18 34.67 34.30 34.43 34.20 33.85 32.64 31.76 29.60 28.68 26.71 24.99 23.31 23.58
44.30 41.67 36.10 32.07 36.16 44.08 42.88 38.25 34.16 35.52 35.66 35.60 28.49 31.17 28.01 33.57 30.72 29.79 29.64 29.67 27.36 26.12 29.21 31.33 26.88 25.79 33.75 36.69 37.23 37.14 36.31 36.41 35.34 31.09 29.74 29.55 28.48 28.13 28.00 27.42 26.67 26.02 23.75 23.44
38.51 33.11 33.10 38.21 43.67 37.26 34.23 25.57 26.84 29.11 28.91 32.58 31.62 31.29 29.47 35.36 28.36 27.13 30.05 26.82 27.23 24.08 27.29 25.75 24.94 26.31 29.99 35.27 36.19 37.15 36.98 36.87 35.92 35.51 34.22 32.94 31.20 28.61 26.88 26.31 26.21 25.58 24.83 24.21
38.47 38.09 40.71 38.94 36.08 30.37 25.97 23.39 27.34 29.31 27.43 30.77 29.89 31.68 33.56 32.09 34.02 29.25 28.82 26.37 26.17 25.08 27.85 23.26 20.49 26.46 33.61 34.98 35.48 35.86 36.15 35.82 35.30 35.16 33.37 31.75 31.01 29.54 28.43 26.98 26.11 25.75 25.63 22.85
39.45 36.13 30.78 28.78 24.10 17.41 15.76 15.26 23.57 23.89 27.77 30.13 30.78 28.95 31.47 32.11 32.02 26.72 27.19 21.00 19.38 26.86 18.13 19.85 24.94 28.07 33.26 34.50 34.95 34.08 34.88 34.56 34.10 33.34 32.53 31.31 29.55 29.17 28.18 26.93 26.23 24.26 22.10 18.80
30.29 27.18 18.65 22.50 15.55 26.23 28.06 29.83 27.79 28.55 28.38 30.68 29.76 28.37 29.14 27.56 27.07 29.16 19.70 24.58 26.29 15.91 16.09 23.43 24.78 29.74 31.12 32.54 32.95 32.38 30.06 29.82 30.56 30.34 29.22 27.76 27.39 22.56 19.65 22.99 21.92 20.28 17.49 12.38
28.55 26.66 18.71 21.13 29.51 29.75 30.82 28.82 25.95 29.24 31.24 31.90 29.36 29.32 29.62 24.11 23.08 24.53 23.46 20.58 17.50 21.81 21.77 27.48 25.88 29.59 31.25 30.66 30.44 28.72 27.61 25.66 25.68 25.09 22.71 19.80 19.17 20.52 14.31 11.06 16.22 17.60 15.22 13.76
28.93 29.10 24.39 25.42 22.67 28.12 26.11 29.97 30.13 30.48 29.34 30.76 30.93 27.91 23.94 24.03 24.71 24.36 20.73 23.46 19.37 27.21 30.38 26.45 27.17 30.64 30.82 30.39 28.35 26.72 25.59 25.97 24.78 22.83 21.36 18.92 18.91 19.39 16.65 13.37 12.24 12.79 15.12 13.46
27.43 26.55 31.80 31.57 25.45 28.68 29.55 31.87 30.03 32.28 31.19 25.71 27.44 23.06 25.82 28.11 24.16 23.76 26.90 26.93 29.75 29.89 29.21 29.79 27.94 27.87 30.78 31.33 30.31 29.69 23.21 23.25 22.45 20.31 19.76 16.48 17.02 18.05 19.01 16.29 10.55 15.27 14.79 13.54
MSLP
1015.40 1016.20 1016.19 1016.28 1016.65 1017.14 1017.81 1017.92 1017.57 1017.32 1018.02 1019.01 1018.46 1017.20 1014.97 1016.13 1015.49 1015.37 1015.23 1014.68 1014.83 1014.98 1015.06 1015.07 1014.74 1014.08 1013.11 1012.52 1012.72 1013.54 1014.03 1014.68 1014.56 1013.71 1012.61 1012.41 1013.24 1013.44 1014.21 1015.67 1017.12 1018.41 1020.12 1021.41
1014.86 1015.33 1015.38 1015.52 1015.56 1015.84 1016.04 1016.50 1016.58 1016.85 1016.84 1016.71 1016.28 1015.83 1016.06 1015.97 1015.50 1015.30 1015.08 1014.78 1014.66 1014.90 1015.20 1015.44 1014.78 1013.70 1012.91 1012.73 1012.83 1013.30 1013.96 1014.86 1015.27 1014.32 1013.86 1013.48 1014.36 1014.10 1014.46 1015.74 1017.50 1018.92 1020.73 1021.53
1014.16 1014.47 1014.56 1014.60 1013.87 1012.42 1013.98 1015.58 1016.02 1015.96 1015.25 1014.39 1014.79 1015.38 1014.63 1014.73 1014.89 1014.86 1014.65 1014.36 1014.76 1015.00 1015.31 1015.37 1014.78 1013.95 1013.15 1012.84 1013.05 1013.38 1013.80 1014.73 1015.27 1015.37 1015.12 1015.23 1014.89 1015.20 1015.94 1016.79 1018.34 1019.46 1020.12 1021.57
1013.46 1013.82 1013.94 1013.55 1013.20 1013.04 1013.14 1014.29 1013.80 1013.37 1013.38 1013.33 1012.86 1013.24 1012.86 1013.39 1013.47 1014.05 1014.06 1013.91 1014.11 1014.46 1015.34 1015.19 1014.59 1014.05 1013.54 1013.38 1013.45 1013.69 1014.14 1015.07 1015.67 1016.27 1016.17 1016.12 1016.39 1016.85 1017.34 1017.84 1018.59 1019.38 1020.22 1021.34
1012.80 1013.27 1013.26 1012.86 1012.87 1013.04 1013.45 1013.64 1013.55 1013.37 1012.42 1012.41 1012.66 1012.46 1011.96 1012.19 1012.54 1012.72 1012.68 1012.96 1012.98 1013.73 1013.86 1013.45 1013.87 1013.46 1013.46 1013.63 1014.11 1014.39 1014.49 1015.55 1016.12 1016.54 1016.71 1016.60 1017.09 1017.57 1017.74 1018.07 1018.53 1019.33 1020.39 1021.45
1012.25 1012.54 1012.56 1012.57 1012.63 1012.57 1012.92 1013.07 1012.90 1012.73 1012.20 1012.01 1011.73 1010.58 1010.76 1010.97 1011.84 1011.78 1011.48 1011.64 1012.61 1012.66 1012.42 1012.50 1012.56 1012.54 1013.04 1013.34 1013.99 1014.61 1014.79 1015.38 1016.28 1016.60 1016.67 1017.09 1017.64 1017.03 1017.35 1017.64 1017.92 1019.01 1020.13 1020.55
1011.51 1011.91 1012.03 1012.03 1012.31 1012.19 1012.34 1012.20 1012.40 1012.39 1011.64 1010.88 1010.41 1010.62 1010.86 1010.76 1010.68 1010.97 1010.84 1010.96 1011.30 1011.53 1011.53 1012.20 1012.43 1012.77 1012.96 1013.18 1013.47 1013.57 1014.32 1015.10 1015.84 1016.59 1017.06 1016.99 1016.33 1016.22 1016.42 1016.98 1017.89 1018.73 1019.58 1020.72
1010.83 1011.21 1011.42 1011.36 1011.71 1011.87 1011.93 1011.72 1011.52 1011.37 1011.00 1010.73 1010.56 1010.31 1010.38 1010.69 1010.71 1011.13 1010.56 1010.29 1010.15 1010.65 1011.60 1012.64 1013.38 1013.46 1013.35 1013.04 1013.03 1013.40 1013.77 1014.78 1015.58 1016.23 1016.54 1016.22 1016.23 1016.11 1016.29 1016.81 1017.67 1018.27 1019.48 1021.21
1010.13 1010.46 1010.73 1010.91 1011.13 1011.29 1011.46 1011.17 1011.00 1010.66 1010.40 1009.62 1009.40 1009.78 1009.78 1010.18 1010.65 1011.38 1011.46 1010.23 1010.27 1010.80 1011.72 1012.82 1012.90 1012.84 1012.64 1012.94 1013.02 1013.35 1014.16 1014.70 1015.58 1016.13 1016.27 1015.92 1015.49 1015.26 1015.69 1016.51 1017.36 1017.83 1019.15 1021.17
1009.53 1009.87 1010.24 1010.53 1010.71 1010.93 1010.89 1010.50 1010.28 1010.36 1009.97 1008.97 1008.55 1008.40 1008.73 1009.38 1010.17 1011.12 1011.60 1011.03 1011.33 1011.45 1012.45 1012.82 1012.64 1012.29 1011.95 1012.37 1012.78 1013.59 1014.22 1014.92 1015.70 1016.26 1016.39 1015.78 1015.27 1015.40 1015.90 1017.31 1017.65 1018.09 1019.30 1020.73
1008.89 1009.37 1009.82 1010.01 1010.25 1010.30 1010.26 1009.89 1009.72 1009.77 1009.42 1008.76 1008.15 1008.12 1008.36 1008.79 1009.40 1010.19 1010.94 1011.97 1012.77 1012.84 1012.59 1012.71 1012.37 1011.84 1011.52 1011.87 1012.08 1012.60 1013.60 1014.79 1015.81 1016.37 1016.64 1016.31 1015.46 1015.84 1016.43 1016.75 1017.23 1018.10 1019.45 1020.55
1008.78 1009.12 1009.39 1009.64 1009.71 1009.78 1009.89 1009.82 1009.00 1009.10 1009.24 1008.92 1008.31 1008.35 1008.13 1008.13 1008.75 1009.39 1010.36 1010.80 1011.43 1011.69 1012.02 1012.35 1012.04 1012.02 1011.91 1012.18 1012.68 1012.67 1013.62 1014.17 1015.27 1016.39 1016.33 1016.10 1015.96 1016.02 1016.25 1016.70 1017.63 1018.66 1019.38 1020.45
1008.53 1008.79 1009.04 1009.13 1009.14 1009.38 1009.59 1009.39 1008.78 1008.80 1008.96 1009.50 1009.23 1008.76 1008.53 1008.43 1008.78 1009.28 1010.25 1010.85 1010.85 1011.12 1010.80 1011.52 1011.76 1011.97 1012.16 1012.82 1012.93 1013.36 1013.87 1014.29 1015.42 1016.51 1016.76 1016.69 1016.63 1016.46 1016.80 1017.18 1017.97 1018.76 1019.35 1020.36
1008.30 1008.49 1008.61 1008.68 1008.64 1008.76 1008.81 1008.82 1008.01 1008.12 1008.75 1009.64 1009.92 1008.63 1008.24 1008.42 1008.56 1009.01 1009.35 1009.56 1009.99 1010.08 1010.65 1011.38 1011.96 1012.12 1011.90 1012.43 1012.65 1013.31 1013.77 1014.46 1015.85 1016.83 1017.05 1017.22 1017.09 1017.06 1017.39 1018.17 1018.66 1019.41 1020.26 1020.80
1008.14 1008.30 1008.37 1008.14 1007.87 1007.37 1007.74 1007.86 1007.68 1007.57 1008.06 1009.29 1009.57 1008.99 1008.76 1008.39 1008.25 1009.01 1009.18 1009.51 1009.93 1010.67 1011.35 1011.84 1012.35 1012.03 1012.13 1012.54 1012.95 1013.57 1013.70 1014.55 1015.44 1015.76 1015.94 1016.56 1017.00 1017.36 1017.73 1018.45 1019.21 1019.79 1020.45 1021.29
1008.04 1008.16 1007.95 1007.42 1007.29 1007.14 1007.66 1008.29 1007.71 1007.06 1007.11 1008.41 1009.97 1009.93 1009.59 1009.25 1009.11 1009.30 1009.63 1009.94 1010.38 1010.96 1011.60 1012.36 1012.33 1012.10 1012.32 1013.26 1013.88 1013.78 1013.65 1013.93 1014.23 1014.91 1015.70 1016.42 1016.84 1017.48 1018.01 1018.75 1019.47 1020.08 1020.81 1021.38
1008.07 1008.08 1008.09 1007.53 1006.48 1007.28 1007.21 1006.97 1007.14 1007.04 1007.08 1008.65 1010.30 1010.71 1010.20 1009.75 1009.89 1010.35 1010.48 1010.61 1011.18 1011.46 1012.25 1012.61 1012.76 1012.64 1012.55 1013.47 1014.09 1014.09 1014.07 1014.24 1014.70 1015.17 1016.04 1017.23 1017.42 1018.03 1018.37 1019.12 1019.75 1020.45 1021.25 1021.95
1007.86 1007.64 1007.23 1007.08 1006.88 1006.86 1006.73 1006.93 1006.83 1006.82 1007.37 1008.60 1010.51 1011.40 1011.20 1010.56 1011.17 1011.47 1011.48 1011.76 1012.04 1012.42 1012.86 1012.98 1013.26 1013.22 1013.32 1013.88 1013.82 1014.13 1014.51 1014.87 1015.34 1015.67 1015.88 1016.50 1017.30 1018.20 1018.80 1019.58 1020.32 1021.19 1022.02 1022.73
1007.67 1007.55 1007.09 1007.33 1007.21 1007.36 1007.39 1006.75 1006.62 1006.65 1007.56 1009.09 1010.44 1011.46 1011.94 1011.16 1011.81 1012.08 1012.30 1012.54 1013.46 1013.49 1013.59 1013.67 1013.70 1014.05 1013.90 1013.47 1013.86 1014.15 1014.43 1014.64 1015.31 1015.94 1016.44 1017.15 1017.89 1018.66 1019.41 1020.16 1020.98 1021.74 1022.69 1023.32
1007.69 1007.60 1007.40 1007.85 1007.98 1007.47 1007.06 1007.14 1007.23 1007.61 1008.39 1009.32 1010.84 1011.29 1011.66 1011.69 1012.44 1013.10 1013.48 1013.75 1014.20 1014.37 1014.36 1013.99 1014.22 1014.48 1013.61 1013.08 1013.23 1013.61 1014.18 1014.54 1015.27 1016.24 1017.25 1017.84 1018.57 1019.23 1019.86 1020.54 1021.16 1021.91 1022.87 1023.70
1007.63 1008.12 1008.59 1008.25 1007.62 1007.74 1008.51 1009.27 1009.41 1009.51 1010.18 1010.54 1011.15 1011.28 1011.59 1012.06 1012.72 1013.44 1014.02 1014.43 1014.63 1014.91 1014.84 1014.70 1015.03 1014.75 1013.91 1013.19 1013.36 1013.79 1014.19 1014.60 1015.19 1015.69 1016.52 1017.30 1018.19 1019.21 1020.05 1020.90 1021.47 1022.20 1022.99 1023.75
1007.40 1007.49 1008.18 1008.35 1008.89 1009.87 1010.37 1010.91 1010.62 1010.50 1011.11 1011.20 1011.54 1011.76 1011.96 1012.43 1012.54 1013.65 1014.38 1014.73 1015.05 1015.25 1015.09 1015.38 1015.57 1014.71 1013.91 1013.68 1013.88 1014.23 1014.52 1014.94 1015.63 1016.09 1016.93 1017.72 1018.53 1019.31 1020.14 1020.98 1021.81 1022.50 1023.21 1023.98
1007.70 1008.08 1009.34 1010.02 1011.05 1011.44 1011.70 1011.81 1011.65 1011.44 1011.28 1011.43 1011.71 1012.20 1012.42 1012.76 1013.16 1014.26 1014.56 1015.14 1015.77 1015.30 1016.01 1016.07 1015.58 1014.79 1014.37 1014.33 1014.56 1014.95 1015.11 1015.47 1016.03 1016.76 1017.30 1018.03 1019.00 1019.80 1020.53 1021.45 1021.99 1022.73 1023.72 1024.41
1009.01 1010.12 1011.10 1011.68 1012.09 1012.17 1012.16 1012.02 1011.94 1011.74 1011.59 1011.69 1012.06 1012.71 1013.16 1013.80 1014.27 1014.76 1015.29 1015.61 1015.55 1016.02 1016.37 1016.22 1015.85 1015.39 1015.18 1015.21 1015.35 1015.63 1016.29 1016.59 1017.13 1017.64 1018.21 1018.87 1019.66 1020.50 1021.22 1021.83 1022.23 1023.13 1024.29 1025.09
1010.25 1010.97 1012.27 1012.62 1012.61 1012.61 1012.53 1012.38 1012.22 1012.05 1011.77 1011.85 1012.57 1013.21 1013.66 1014.42 1014.77 1014.97 1015.53 1015.87 1015.72 1015.76 1015.84 1015.98 1016.00 1015.97 1015.88 1016.09 1016.40 1016.70 1017.19 1017.68 1018.25 1018.57 1019.26 1019.90 1020.56 1021.23 1022.13 1022.82 1022.85 1023.17 1024.35 1025.43
1011.35 1012.23 1012.74 1012.95 1013.10 1013.31 1013.03 1013.02 1012.75 1012.16 1012.29 1012.24 1012.70 1013.52 1014.17 1014.49 1014.61 1015.10 1015.30 1015.39 1015.54 1015.69 1015.97 1016.43 1016.53 1016.67 1016.92 1017.14 1017.38 1017.88 1018.13 1018.38 1018.94 1019.42 1019.94 1020.67 1021.34 1021.97 1022.76 1023.46 1023.94 1024.12 1024.46 1025.43
1012.59 1013.20 1013.07 1013.05 1013.35 1013.52 1013.50 1013.19 1012.89 1012.43 1012.65 1013.15 1013.41 1013.76 1014.08 1014.34 1014.53 1015.00 1015.18 1015.37 1015.60 1015.97 1016.56 1016.89 1017.11 1017.28 1017.54 1017.85 1018.22 1018.64 1018.99 1019.36 1019.77 1020.26 1020.84 1021.50 1022.10 1022.63 1023.27 1024.17 1024.78 1024.77 1025.00 1025.42
Wind_Speed
10 10 5 4 11 12 14 4 6 7 13 9 8 20 26 14 6 17 7 2 4 7 7 9 9 10 7 2 8 9 3 4 4 8 8 5 5 8 7 4 4 2 4 4
9 6 5 5 10 18 8 7 6 11 13 11 14 17 23 22 10 9 8 9 8 4 6 1 5 7 4 7 5 8 6 1 1 5 3 8 12 3 3 6 3 5 4 5
9 5 4 3 7 17 11 5 6 5 11 8 20 20 26 28 17 22 19 8 7 4 2 2 6 4 2 5 4 8 6 4 5 5 4 2 2 5 4 3 3 3 6 5
12 7 3 3 5 6 4 3 4 4 10 18 22 24 13 28 24 24 9 9 12 8 4 3 5 4 2 5 7 4 5 2 2 6 4 3 2 2 1 4 4 5 5 6
13 11 5 5 6 4 2 5 4 3 3 17 21 21 23 23 23 17 30 17 11 9 10 9 8 7 3 4 6 4 4 3 4 5 7 6 4 5 7 3 3 2 4 5
16 13 9 5 2 5 2 3 4 3 3 8 10 13 22 23 20 17 22 28 12 11 7 5 9 5 7 4 7 6 6 5 4 3 5 3 5 11 8 5 5 6 8 5
18 16 12 8 4 2 1 3 3 2 3 9 13 11 15 20 22 15 20 15 17 6 7 5 6 4 2 11 11 7 6 5 4 2 3 5 5 2 6 7 4 4 4 9
16 19 17 13 7 3 3 2 3 3 3 8 6 14 17 13 15 8 6 4 8 8 8 4 4 1 1 7 9 8 8 5 3 4 5 4 2 5 6 7 7 7 10 10
16 13 19 11 7 6 3 3 3 3 1 9 12 12 19 8 8 3 3 3 6 5 5 4 5 6 6 6 4 3 3 2 3 1 3 4 3 3 6 4 5 11 13 15
14 14 15 15 8 10 5 3 4 2 2 4 10 13 10 5 6 5 2 2 5 6 3 6 4 4 7 7 8 6 4 2 5 3 2 3 1 6 7 4 6 12 15 17
13 15 16 12 10 11 3 3 4 3 2 3 0 3 6 7 5 8 7 6 3 1 4 4 4 3 5 4 3 6 7 6 4 3 2 6 3 3 7 4 3 12 11 15
16 13 11 11 12 8 3 3 3 5 2 1 2 3 3 3 4 7 3 3 9 5 4 1 1 1 1 5 1 5 1 4 6 4 4 1 2 2 2 3 6 5 11 12
14 12 11 7 5 6 6 3 3 3 2 4 3 3 3 3 5 7 5 2 5 5 5 4 3 2 3 4 4 5 2 2 4 3 2 2 2 2 4 4 7 7 9 15
12 10 6 9 10 13 13 4 3 2 4 3 1 8 4 3 10 13 8 3 2 5 3 2 3 3 1 2 4 4 4 4 5 2 1 2 4 3 9 10 11 13 11 13
10 7 9 13 13 12 10 5 3 3 4 4 4 6 5 4 7 9 7 6 4 3 3 4 1 0 3 2 4 2 3 7 5 6 8 5 5 7 12 13 11 13 12 12
6 8 9 15 15 3 3 1 3 3 4 5 3 2 4 6 6 8 6 4 3 3 4 2 1 1 4 3 2 2 1 4 4 4 10 3 9 9 9 9 9 9 11 11
10 10 13 13 13 2 4 5 3 2 1 5 3 2 5 4 5 4 4 4 3 3 2 2 2 2 3 3 3 4 4 5 7 12 12 7 5 6 10 11 9 12 8 7
10 11 2 5 6 3 4 2 3 4 5 4 4 1 4 4 3 3 3 3 3 5 2 2 2 3 2 2 4 6 7 9 9 6 4 7 9 12 9 8 7 8 7 8
7 2 7 1 2 4 3 11 8 2 5 4 4 5 3 2 2 2 4 3 4 3 2 1 3 2 1 6 10 11 12 6 8 6 8 10 11 9 8 8 8 9 7 9
4 2 4 4 2 6 7 8 5 5 4 4 3 1 2 4 1 2 3 3 2 2 3 2 3 2 4 6 11 11 9 9 11 10 6 7 7 10 9 9 7 9 8 7
2 3 2 3 6 4 4 3 4 2 4 2 1 3 4 3 4 2 1 2 1 3 4 4 1 1 3 1 8 7 7 10 12 10 9 11 13 11 8 7 8 9 10 9
4 4 3 3 5 4 5 2 3 3 3 1 4 2 3 2 3 4 2 3 2 2 1 4 0 4 2 6 7 6 7 8 8 8 9 9 10 11 10 9 9 9 8 7
3 5 5 4 4 7 4 2 2 2 0 1 2 3 3 3 4 3 3 4 3 1 4 3 4 3 3 6 6 6 6 8 8 6 7 9 8 8 8 8 6 8 7 6
5 4 4 3 4 2 1 1 1 3 3 6 4 3 3 1 4 1 5 3 3 3 2 5 3 2 3 4 4 8 5 7 8 8 6 8 9 6 4 7 9 10 8 6
4 5 2 1 1 3 3 2 2 3 2 5 3 4 4 2 4 1 3 4 1 4 4 3 2 1 4 4 3 6 7 6 5 4 6 7 7 7 5 2 4 7 8 7
4 5 3 2 4 2 3 3 2 3 2 3 4 3 3 0 4 3 3 4 4 3 2 1 1 3 4 4 5 5 4 4 6 5 6 6 7 8 7 5 4 5 8 8
4 2 2 2 3 2 1 2 2 3 4 1 3 3 3 3 2 2 1 2 1 4 3 3 3 4 5 5 5 4 4 5 5 3 5 5 5 8 7 6 1 4 4 5
Wind_Direction
234 257 230 192 197 206 189 191 222 175 151 175 197 213 212 238 247 227 252 274 230 217 201 196 201 209 189 244 150 184 140 152 195 246 259 336 261 200 172 171 209 192 168 254
232 229 214 240 230 215 163 209 195 175 173 200 210 227 229 236 219 220 210 237 204 219 205 200 186 195 202 153 139 160 171 130 264 302 316 194 242 88 90 90 82 216 148 253
216 204 176 281 315 258 169 140 186 202 201 218 204 211 223 220 218 241 241 250 201 135 174 164 211 206 220 171 133 148 109 166 187 202 199 301 9 87 58 104 133 205 227 159
191 183 159 105 74 45 102 189 210 197 199 212 219 206 199 218 215 214 214 233 208 174 173 161 176 195 134 69 139 91 120 206 83 280 234 140 86 323 221 180 198 166 262 214
183 182 160 83 122 126 96 149 173 213 286 216 210 211 217 212 208 198 218 232 215 190 192 186 189 150 139 153 351 197 171 194 132 190 276 184 184 216 205 218 215 210 182 237
188 187 172 129 117 147 166 206 202 200 168 218 205 200 205 210 201 215 206 216 206 205 206 161 168 177 171 158 196 219 167 157 143 245 205 141 274 224 189 188 198 156 202 196
200 192 172 150 148 149 175 207 155 190 248 192 206 184 188 200 197 199 229 203 204 207 129 87 46 13 317 193 197 176 175 177 161 167 119 217 244 234 213 187 171 162 94 154
209 207 190 163 174 238 219 205 219 204 217 207 226 196 190 214 199 191 253 203 158 147 119 98 143 124 139 227 239 200 188 171 182 178 204 292 183 211 163 171 237 188 143 140
206 212 203 191 186 244 258 231 214 242 165 223 196 194 189 179 158 96 320 5 69 108 107 134 182 182 174 187 183 225 272 227 179 133 225 230 244 181 146 74 283 162 144 150
205 195 191 197 207 255 227 256 194 242 216 264 210 192 193 144 108 113 187 82 36 52 162 182 184 208 182 163 174 166 190 144 190 159 258 286 299 146 113 106 245 159 155 156
194 204 194 204 231 252 225 258 196 205 206 288 218 138 141 130 148 158 176 79 311 25 169 172 234 178 192 122 176 165 164 161 180 128 159 267 138 88 166 201 80 148 154 159
170 179 191 216 234 211 239 267 213 191 225 230 65 73 117 62 110 119 152 91 148 183 151 273 190 131 68 136 189 351 103 172 172 188 216 229 290 167 138 130 119 147 149 157
176 194 210 245 224 248 225 254 248 97 115 36 38 130 219 217 120 170 116 288 203 201 169 179 139 90 125 133 223 118 118 138 96 102 275 170 358 70 106 108 116 111 128 144
192 200 226 267 275 257 232 214 201 162 106 94 357 277 63 142 184 180 166 167 141 116 101 108 115 140 138 177 138 127 196 95 117 22 303 85 294 111 126 110 113 112 120 138
200 207 258 277 273 268 191 212 258 242 118 133 158 54 342 15 105 122 129 118 101 78 50 63 176 310 82 19 78 81 190 158 161 216 189 158 185 144 135 131 137 138 139 140
186 259 282 281 290 70 81 115 237 360 128 100 86 284 30 33 69 79 76 75 78 89 117 151 61 352 103 95 102 332 93 126 154 180 142 142 128 125 140 121 137 140 140 147
235 252 247 258 271 122 198 167 187 329 85 88 69 37 327 4 37 29 40 36 63 90 93 65 118 354 72 94 147 198 101 95 90 117 107 78 131 144 127 114 117 124 114 118
231 259 120 115 93 112 33 350 349 325 90 84 99 14 34 22 21 42 7 51 29 15 120 32 81 2 42 64 132 127 115 108 117 123 88 139 126 138 130 117 115 115 120 114
247 258 307 325 23 43 281 315 319 81 116 113 98 129 188 356 50 54 27 59 47 295 73 51 83 331 214 181 156 150 154 160 161 114 110 122 135 138 137 134 133 130 132 134
247 11 38 6 310 290 324 5 27 17 355 45 91 147 131 101 47 28 64 15 143 86 262 53 74 243 272 167 168 159 166 139 133 118 121 121 130 150 154 159 147 143 145 137
69 71 133 249 313 44 33 27 73 325 48 37 108 114 116 337 100 149 166 168 155 97 255 119 304 286 259 145 138 154 155 152 162 162 162 165 159 156 149 147 148 149 153 161
191 131 120 32 36 36 71 331 335 54 163 50 110 139 127 42 95 98 349 109 40 155 158 75 16 253 235 128 126 140 151 147 142 146 152 152 152 158 157 154 158 164 160 141
32 42 52 59 320 46 103 194 320 82 178 144 109 56 101 42 47 60 84 74 207 63 52 201 222 261 128 126 114 97 105 122 123 121 134 136 138 137 147 151 148 142 139 141
72 100 29 81 347 94 72 45 181 254 119 109 97 62 85 61 56 103 83 237 76 57 91 214 239 205 117 112 119 114 120 119 128 132 129 136 141 132 108 144 148 138 150 159
70 65 48 73 117 21 1 308 24 339 123 88 60 47 82 31 88 79 104 41 197 186 210 197 198 111 100 95 90 123 125 119 116 120 120 124 129 130 112 47 130 122 121 135
58 41 51 349 66 17 14 15 1 333 71 69 61 101 68 217 133 105 206 149 201 179 92 76 82 69 76 92 77 61 62 110 123 117 125 125 130 136 133 97 79 115 137 145
47 19 0 51 95 62 20 342 318 331 64 106 107 83 187 114 71 68 81 127 101 113 83 51 60 108 117 108 94 84 75 95 105 101 95 108 107 114 114 125 181 136 129 135